Weather History for KBXA - November, 2012

Change the Weather History Date:

Sunday, November 18, 2012

  Actual Average Record
Temperature  
Mean Temperature 50 °F -  
Max Temperature 67 °F 69 °F 81 °F (2013)
Min Temperature 34 °F 45 °F 29 °F (2014)
Degree Days  
Heating Degree Days 14    
Moisture  
Dew Point 39 °F    
Average Humidity 77    
Maximum Humidity 100    
Minimum Humidity 32    
Precipitation  
Precipitation 0.00 in - - ()
Sea Level Pressure  
Sea Level Pressure 30.31 in    
Wind  
Wind Speed 2 mph ()    
Max Wind Speed 8 mph    
Max Gust Speed -    
Visibility 9.1 miles    
Events      
Averages and records for this station are not official NWS values.
T = Trace of Precipitation, MM = Missing Value Source: Averaged Metar Reports

Daily Weather History Graph

Daily Weather History Graph

Search for Another Location

Airport or City:

Trip Planner

Search our weather history database for the weather conditions in past years. The results will help you decide how hot, cold, wet, or windy it might be!

Date:

Astronomy

Nov. 18, 2012 Rise Set
Actual Time 6:28 AM CST 5:00 PM CST
Civil Twilight 6:03 AM CST 5:25 PM CST
Nautical Twilight 5:33 AM CST 5:55 PM CST
Astronomical Twilight 5:05 AM CST 6:24 PM CST
Moon 10:59 AM CST (11/18) 10:14 PM CST (11/18)
Length of Visible Light 11h 22m
Length of Day
10h 31m
Waxing Crescent, 30% of the Moon is Illuminated
Nov 18
Waxing Crescent
Nov 20
First Quarter
Nov 28
Full
Dec 6
Last Quarter
Dec 13
New

Hourly Weather History & Observations

Time (CST) Temp. Windchill Dew Point Humidity Pressure Visibility Wind Dir Wind Speed Gust Speed Precip Events Conditions
12:15 AM 38.3 °F - 38.3 °F 100% 30.34 in 7.0 mi Calm Calm - N/A   Unknown
12:35 AM 37.8 °F - 37.8 °F 100% 30.33 in 10.0 mi Calm Calm - N/A   Unknown
1:15 AM 36.5 °F - 36.5 °F 100% 30.33 in 10.0 mi Calm Calm - N/A   Unknown
1:35 AM 35.6 °F - 35.6 °F 100% 30.33 in 10.0 mi Calm Calm - N/A   Unknown
2:15 AM 34.5 °F - 34.5 °F 100% 30.32 in 10.0 mi Calm Calm - N/A   Unknown
2:35 AM 35.4 °F - 35.4 °F 100% 30.32 in 10.0 mi Calm Calm - N/A   Unknown
2:55 AM 34.7 °F - 34.7 °F 100% 30.32 in 7.0 mi Calm Calm - N/A   Unknown
3:15 AM 35.2 °F - 35.2 °F 100% 30.32 in 10.0 mi Calm Calm - N/A   Unknown
3:35 AM 35.2 °F - 35.2 °F 100% 30.32 in 10.0 mi Calm Calm - N/A   Unknown
3:55 AM 35.6 °F - 35.6 °F 100% 30.32 in 10.0 mi Calm Calm - N/A   Unknown
4:35 AM 35.1 °F - 35.1 °F 100% 30.32 in 10.0 mi Calm Calm - N/A   Unknown
4:55 AM 35.6 °F 32.8 °F 35.6 °F 100% 30.32 in 10.0 mi North 3.5 mph - N/A   Unknown
5:15 AM 35.8 °F - 35.8 °F 100% 30.33 in 10.0 mi Calm Calm - N/A   Unknown
5:35 AM 35.4 °F - 35.4 °F 100% 30.33 in 10.0 mi Calm Calm - N/A   Clear
5:55 AM 34.9 °F - 34.9 °F 100% 30.33 in 10.0 mi Calm Calm - N/A   Clear
6:15 AM 36.0 °F - 36.0 °F 100% 30.33 in 10.0 mi Calm Calm - N/A   Clear
6:35 AM 34.2 °F - 34.2 °F 100% 30.34 in 10.0 mi Calm Calm - N/A   Unknown
6:55 AM 35.4 °F - 35.4 °F 100% 30.35 in 10.0 mi Calm Calm - N/A   Unknown
7:15 AM 35.8 °F 33.0 °F 35.8 °F 100% 30.35 in 10.0 mi North 3.5 mph - N/A   Clear
7:35 AM 39.6 °F 37.4 °F 38.5 °F 96% 30.35 in 10.0 mi NE 3.5 mph - N/A   Unknown
7:55 AM 42.1 °F 39.2 °F 38.7 °F 88% 30.35 in 10.0 mi NE 4.6 mph - N/A   Unknown
8:15 AM 44.2 °F 41.8 °F 37.8 °F 78% 30.35 in 10.0 mi NE 4.6 mph - N/A   Unknown
8:35 AM 46.6 °F - 37.9 °F 72% 30.35 in 10.0 mi NE 3.5 mph - N/A   Unknown
9:15 AM 50.9 °F - 38.5 °F 62% 30.35 in 10.0 mi ENE 5.8 mph - N/A   Unknown
9:35 AM 53.1 °F - 39.0 °F 59% 30.35 in 10.0 mi East 4.6 mph - N/A   Unknown
9:55 AM 55.4 °F - 39.0 °F 54% 30.35 in 10.0 mi East 4.6 mph - N/A   Unknown
10:15 AM 58.1 °F - 38.1 °F 47% 30.35 in 10.0 mi ENE 6.9 mph - N/A   Unknown
10:35 AM 60.3 °F - 36.5 °F 41% 30.35 in 10.0 mi ENE 6.9 mph - N/A   Unknown
11:15 AM 62.4 °F - 33.4 °F 34% 30.34 in 10.0 mi NE 5.8 mph - N/A   Clear
11:35 AM 63.3 °F - 32.9 °F 32% 30.33 in 10.0 mi East 4.6 mph - N/A   Unknown
11:55 AM 64.2 °F - 34.7 °F 33% 30.32 in 10.0 mi ENE 6.9 mph - N/A   Unknown
12:15 PM 64.6 °F - 34.2 °F 32% 30.31 in 10.0 mi ENE 6.9 mph - N/A   Unknown
12:35 PM 65.1 °F - 34.9 °F 33% 30.29 in 10.0 mi NNE 8.1 mph - N/A   Unknown
12:55 PM 66.0 °F - 35.4 °F 32% 30.29 in 10.0 mi North 4.6 mph - N/A   Unknown
1:15 PM 66.4 °F - 35.6 °F 32% 30.28 in 10.0 mi NNE 3.5 mph - N/A   Unknown
1:35 PM 66.2 °F - 36.0 °F 33% 30.28 in 10.0 mi ESE 5.8 mph - N/A   Unknown
1:55 PM 66.6 °F - 36.0 °F 32% 30.27 in 10.0 mi Calm Calm - N/A   Unknown
2:15 PM 66.9 °F - 36.3 °F 32% 30.27 in 10.0 mi NNE 5.8 mph - N/A   Unknown
2:35 PM 67.1 °F - 36.3 °F 32% 30.27 in 10.0 mi NNE 3.5 mph - N/A   Unknown
2:55 PM 67.1 °F - 36.3 °F 32% 30.27 in 10.0 mi NE 4.6 mph - N/A   Unknown
3:15 PM 66.7 °F - 36.5 °F 33% 30.26 in 10.0 mi NE 4.6 mph - N/A   Unknown
3:35 PM 66.4 °F - 36.9 °F 34% 30.26 in 10.0 mi NNE 4.6 mph - N/A   Unknown
3:55 PM 65.8 °F - 36.7 °F 34% 30.26 in 10.0 mi NNE 4.6 mph - N/A   Unknown
4:15 PM 64.9 °F - 37.2 °F 36% 30.27 in 10.0 mi North 4.6 mph - N/A   Unknown
4:35 PM 62.4 °F - 40.6 °F 45% 30.28 in 10.0 mi North 3.5 mph - N/A   Unknown
5:15 PM 54.7 °F - 46.9 °F 75% 30.28 in 10.0 mi Calm Calm - N/A   Unknown
5:35 PM 53.2 °F - 46.6 °F 78% 30.29 in 10.0 mi Calm Calm - N/A   Unknown
5:55 PM 50.4 °F - 48.9 °F 95% 30.28 in 7.0 mi Calm Calm - N/A   Unknown
6:35 PM 48.6 °F - 48.6 °F 100% 30.29 in 7.0 mi Calm Calm - N/A   Unknown
6:55 PM 47.7 °F - 47.7 °F 100% 30.29 in 7.0 mi Calm Calm - N/A   Unknown
7:15 PM 47.5 °F - 47.5 °F 100% 30.30 in 7.0 mi Calm Calm - N/A   Unknown
7:35 PM 46.4 °F - 46.4 °F 100% 30.30 in 4.0 mi Calm Calm - N/A   Mist
7:55 PM 45.9 °F - 45.9 °F 100% 30.30 in 7.0 mi Calm Calm - N/A   Unknown
8:15 PM 44.1 °F - 44.1 °F 100% 30.31 in 7.0 mi Calm Calm - N/A   Unknown
8:35 PM 44.2 °F - 44.2 °F 100% 30.31 in 10.0 mi Calm Calm - N/A   Unknown
8:55 PM 44.4 °F - 44.4 °F 100% 30.31 in 7.0 mi Calm Calm - N/A   Unknown
9:15 PM 42.4 °F 40.7 °F 42.4 °F 100% 30.32 in 7.0 mi North 3.5 mph - N/A   Unknown
9:35 PM 42.8 °F - 42.8 °F 100% 30.32 in 5.0 mi Calm Calm - N/A   Mist
9:55 PM 42.8 °F - 42.8 °F 100% 30.32 in 5.0 mi Calm Calm - N/A   Mist
10:15 PM 42.4 °F - 42.4 °F 100% 30.31 in 7.0 mi Calm Calm - N/A   Unknown
10:35 PM 42.3 °F - 42.3 °F 100% 30.31 in 10.0 mi Calm Calm - N/A   Unknown
10:55 PM 42.1 °F - 42.1 °F 100% 30.31 in 7.0 mi Calm Calm - N/A   Unknown
11:35 PM 41.4 °F - 41.4 °F 100% 30.31 in 5.0 mi Calm Calm - N/A   Mist
11:55 PM 40.8 °F - 40.8 °F 100% 30.31 in 7.0 mi Calm Calm - N/A   Unknown